Regional Weather Roundup
Issued by NWS State College, PA

Home | Current Version | Previous Version | Text Only | Print | Product List | Glossary On
Versions: 1 2 3 4 5 6 7 8 9 10 11 12 13 14 15 16 17 18 19 20 21 22 23 24 25 26 27 28 29 30 31 32 33 34 35 36 37 38 39 40 41 42 43 44 45 46 47 48 49 50
000
ASUS41 KCTP 090010
RWRCTP

REGIONAL WEATHER ROUNDUP
NATIONAL WEATHER SERVICE STATE COLLEGE PA
700 PM EST THU DEC 08 2016

Note: "fair" indicates few or no clouds below 12,000 feet with no
significant weather and/or obstructions to visibility.

* = STATION THAT DOES NOT REPORT PRECIPITATION /E.G. RAIN...SNOW...ETC/
    THUNDER OR FOG.

PAZ002>004-007>009-013>016-020>023-029>032-090100-
WESTERN PENNSYLVANIA

CITY           SKY/WX    TMP DP  RH WIND       PRES   REMARKS
ERIE           LGT SNOW  31  23  72 W24G31    30.10R
MEADVILLE      LGT SNOW  22  17  81 SW14G29   30.10R WCI   9
FRANKLIN*        N/A     23  12  63 W9G20     30.11R WCI  13
NEW CASTLE     FLURRIES  24  17  74 W13G23    30.19R WCI  12
BEAVER COUNTY  FLURRIES  23  18  80 W14       30.19R WCI  11
BUTLER*        CLOUDY    25  16  68 W14       30.20R WCI  13
PITTSBURGH INT FLURRIES  27  15  61 W14G30    30.19R
PITTSBURGH     CLOUDY    25  15  66 W13G20    30.18R WCI  14
INDIANA*       MOCLDY    25  18  74 W17G24    30.16S HAZE    WCI  11
LATROBE        CLOUDY    25  18  74 W12       30.19R WCI  14
WASHINGTON CO* CLOUDY    25  12  58 W10G17    30.22R WCI  15
$$

PAZ004>006-010>012-017>019-024>028-033>037-041-042-045-046-049>053-090100-
CENTRAL PENNSYLVANIA

CITY           SKY/WX    TMP DP  RH WIND       PRES   REMARKS
BRADFORD       FLURRIES  22  15  75 W9G18     29.99R WCI  12
DUBOIS         CLOUDY    23  14  68 W15G23    30.05S WCI  10
CLEARFIELD     CLOUDY    25  15  66 SW10G20   30.08R WCI  15
JOHNSTOWN      CLOUDY    21  14  74 W18G29    30.06R WCI   6
ALTOONA        FLURRIES  26  16  65 W12G22    30.11R
STATE COLLEGE  MOCLDY    27  14  59 W17G25    30.08R WCI  14
WILLIAMSPORT   MOCLDY    33  16  49 W15G21    30.03R
SELINSGROVE    CLOUDY    32  16  51 W9G18     30.09R
FT INDIANTOWN  CLOUDY    33  13  45 W13G22    30.07R
CAPITAL CITY   PTCLDY    34  15  46 NW18G29   30.10R
HARRISBURG     PTCLDY    34  18  52 NW21G29   30.09R
YORK           PTCLDY    32  18  56 W14       30.08R
$$

PAZ038>040-043-044-047-048-054-055-060>062-067>071-090100-
EASTERN PENNSYLVANIA

CITY           SKY/WX    TMP DP  RH WIND       PRES   REMARKS
SCRANTON       CLOUDY    34  15  46 W12       29.96R
MOUNT POCONO   PTCLDY    27  14  58 W14G24    29.89R
ALLENTOWN      CLEAR     35  16  45 W14       30.02R
QUAKERTOWN*    CLEAR     34  16  47 W7G21     30.03R
READING        CLEAR     34  14  43 W17G30    30.05R
LANCASTER      CLEAR     33  18  53 NW14      30.07R
COATESVILLE    CLEAR     34  16  47 NW20      30.05R
POTTSTOWN      CLEAR     34  16  47 NW16G22   30.05R
BLUE BELL      CLEAR     34  19  55 NW10G18   30.03R
DOYLESTOWN     CLEAR     36  17  46 NW12      30.01R
WILLOW GROVE   NOT AVBL
NORTH PHILA    CLEAR     39  17  41 NW16G24   30.03R
PHILADELPHIA   MOCLDY    40  17  39 NW24G31   30.04R
$$




USA.gov is the U.S. government's official web portal to all federal, state and local government web resources and services.